Main page
METAR-TAF:

METAR-TAF

Airports :

Pembrey Airport

Pembrey, Wales

latitude: 51-43N, longitude: 004-22W, elevation: 3 m

Current weather observation

The report was made 32 minutes ago, at 14:50 UTC
Wind 11 kt from the South/Southwest
Temperature 20°C
Humidity 88%
Pressure 1016 hPa
Visibility 10 km or more
Few clouds at a height of 300 ft
Broken clouds at a height of 1300 ft
Broken clouds at a height of 2800 ft

METAR: EGOP 231450Z 20011KT 9999 FEW003 BKN013 BKN028 20/18 Q1016 GRN

Time: 16:22 (15:22 UTC)


TAF: missing

Weather observations and forecasts of more than 4000 airports (METAR and TAF reports).

The available stations are represented by yellow and red dots on the map.

Hover mouse over dot to see the name of the station.

Then click to see weather observations and forecasts.

To change the map : click on the green buttons with a black cross to zoom in, on the green button with a dash to zoom out, or on the green arrows for adjacent maps.


METAR-TAF: